This is the latest recevied weather packets stored in our database for station/object N3DXC. If no packets are shown the sender has not sent any weather packets the latest 10 day(s).
| Time | Temp. | Humidity | Pressure | Rain* | Wind** | Luminosity | Snow |
|---|---|---|---|---|---|---|---|
| 1777517106 | 10.56° C | 95% | 1009.1 hPa | 0 mm | - | - | - |
| 1777516806 | 11.11° C | 95% | 1009.1 hPa | 0.25 mm | - | - | - |
| 1777516506 | 10.56° C | 95% | 1009 hPa | 0.25 mm | - | - | - |
| 1777516206 | 10.56° C | 95% | 1009 hPa | 0.25 mm | - | - | - |
| 1777515907 | 10.56° C | 95% | 1009 hPa | 0.25 mm | - | - | - |
| 1777515606 | 10.56° C | 95% | 1009.1 hPa | 0.25 mm | - | - | - |
| 1777515307 | 11.11° C | 95% | 1009.1 hPa | 0.25 mm | - | - | - |
| 1777515006 | 11.11° C | 95% | 1008.9 hPa | 0.25 mm | - | - | - |
| 1777514706 | 11.11° C | 95% | 1008.8 hPa | 0.25 mm | - | - | - |
| 1777514406 | 11.11° C | 95% | 1008.7 hPa | 0.25 mm | - | - | - |
| 1777514106 | 11.11° C | 95% | 1008.7 hPa | 0.76 mm | - | - | - |
| 1777513806 | 11.11° C | 95% | 1008.8 hPa | 0.76 mm | - | - | - |
| 1777513509 | 11.11° C | 95% | 1008.7 hPa | 0.76 mm | - | - | - |
| 1777513206 | 11.67° C | 95% | 1008.6 hPa | 0.51 mm | - | - | - |
| 1777512908 | 11.67° C | 95% | 1008.7 hPa | 0.51 mm | - | - | - |
| 1777512306 | 11.67° C | 95% | 1008.7 hPa | 0.51 mm | - | - | - |
| 1777512006 | 11.67° C | 95% | 1008.7 hPa | 0.51 mm | - | - | - |
| 1777511708 | 11.67° C | 95% | 1008.5 hPa | 0.51 mm | - | - | - |
| 1777511407 | 11.67° C | 95% | 1008.5 hPa | 0.51 mm | - | - | - |
| 1777510807 | 12.22° C | 96% | 1008.3 hPa | 0.51 mm | - | - | - |
| 1777510507 | 12.22° C | 96% | 1008.1 hPa | 0 mm | - | - | - |
| 1777510207 | 12.78° C | 96% | 1007.9 hPa | 0 mm | - | - | - |
| 1777509307 | 12.78° C | 96% | 1007.5 hPa | 0 mm | - | - | - |
| 1777509007 | 12.78° C | 96% | 1007.8 hPa | 0.25 mm | - | - | - |
| 1777508706 | 12.78° C | 96% | 1007.8 hPa | 0.25 mm | - | - | - |
* Rain latest hour (hover to see other rain measurements)
** Current wind speed in m/s (hover to see current wind gust speed)